When you browse on this site, cookies collect data to enhance your experience and personalize the content and advertising you see.
Visit our Privacy Policy to learn more. By continuing to use the site, you agree to this use of cookies and data.
  • In Schweiz
  • Länderverzeichnis
  • Für 7 Tage
  • Wassertemperatur
  • Wetterkarte
  • Widgets
  • user-avatar
    Anmelden

    Stündliche Wetter Nice

    Heute, 12 November, Dienstag

    Zeit Temperatur Niederschläge Wind Luftdruck Luftfeuchtigkeit
    00:00 +11°C° 0 mm 1 m/S 751 mmHg 76%
    01:00 +11°C° 0 mm 1 m/S 751 mmHg 76%
    02:00 +10°C° 0 mm 1 m/S 750 mmHg 76%
    03:00 +10°C° 0 mm 1 m/S 750 mmHg 76%
    04:00 +9°C° 0 mm 2 m/S 749 mmHg 75%
    05:00 +9°C° 0 mm 2 m/S 749 mmHg 74%
    06:00 +9°C° 0 mm 2 m/S 749 mmHg 72%
    07:00 +10°C° 0 mm 2 m/S 749 mmHg 69%
    08:00 +12°C° 0 mm 2 m/S 748 mmHg 66%
    09:00 +13°C° 0 mm 2 m/S 748 mmHg 63%
    10:00 +14°C° 0 mm 3 m/S 748 mmHg 58%
    11:00 +16°C° 0 mm 3 m/S 747 mmHg 52%
    12:00 +17°C° 0 mm 3 m/S 746 mmHg 45%
    13:00 +17°C° 0 mm 3 m/S 746 mmHg 46%
    14:00 +17°C° 0 mm 2 m/S 745 mmHg 47%
    15:00 +16°C° 0 mm 2 m/S 745 mmHg 48%
    16:00 +15°C° 0 mm 2 m/S 745 mmHg 49%
    17:00 +13°C° 0 mm 2 m/S 745 mmHg 49%
    18:00 +10°C° 0 mm 3 m/S 745 mmHg 50%
    19:00 +10°C° 0 mm 3 m/S 745 mmHg 46%
    20:00 +9°C° 0 mm 3 m/S 744 mmHg 42%
    21:00 +9°C° 0 mm 3 m/S 744 mmHg 38%
    22:00 +9°C° 0 mm 3 m/S 744 mmHg 36%
    23:00 +9°C° 0 mm 3 m/S 744 mmHg 34%

    Morgen, 13 November, Mittwoch

    Zeit Temperatur Niederschläge Wind Luftdruck Luftfeuchtigkeit
    00:00 +9°C° 0 mm 3 m/S 744 mmHg 31%
    01:00 +8°C° 0 mm 3 m/S 744 mmHg 33%
    02:00 +8°C° 0 mm 3 m/S 744 mmHg 34%
    03:00 +8°C° 0 mm 3 m/S 744 mmHg 35%
    04:00 +8°C° 0 mm 3 m/S 744 mmHg 36%
    05:00 +8°C° 0 mm 3 m/S 745 mmHg 38%
    06:00 +7°C° 0 mm 4 m/S 745 mmHg 39%
    07:00 +9°C° 0 mm 3 m/S 745 mmHg 37%
    08:00 +12°C° 0 mm 2 m/S 745 mmHg 35%
    09:00 +13°C° 0 mm 2 m/S 745 mmHg 33%
    10:00 +14°C° 0 mm 2 m/S 745 mmHg 37%
    11:00 +14°C° 0 mm 3 m/S 745 mmHg 40%
    12:00 +14°C° 0 mm 4 m/S 746 mmHg 44%
    13:00 +14°C° 0 mm 3 m/S 746 mmHg 51%
    14:00 +13°C° 0 mm 3 m/S 746 mmHg 57%
    15:00 +14°C° 0 mm 2 m/S 746 mmHg 64%
    16:00 +13°C° 0 mm 1 m/S 747 mmHg 66%
    17:00 +12°C° 0 mm 1 m/S 747 mmHg 69%
    18:00 +11°C° 0 mm 1 m/S 748 mmHg 72%
    19:00 +10°C° 0 mm 1 m/S 748 mmHg 71%
    20:00 +10°C° 0 mm 1 m/S 749 mmHg 70%
    21:00 +8°C° 0 mm 2 m/S 749 mmHg 68%
    22:00 +8°C° 0 mm 2 m/S 749 mmHg 67%
    23:00 +8°C° 0 mm 2 m/S 749 mmHg 67%

    übermorgen, 14 November, Donnerstag

    Zeit Temperatur Niederschläge Wind Luftdruck Luftfeuchtigkeit
    00:00 +8°C° 0 mm 2 m/S 750 mmHg 66%
    01:00 +8°C° 0 mm 2 m/S 750 mmHg 66%
    02:00 +8°C° 0 mm 2 m/S 750 mmHg 66%
    03:00 +8°C° 0 mm 2 m/S 750 mmHg 66%
    04:00 +8°C° 0 mm 2 m/S 750 mmHg 67%
    05:00 +8°C° 0 mm 2 m/S 750 mmHg 69%
    06:00 +8°C° 0 mm 2 m/S 750 mmHg 70%
    07:00 +9°C° 0 mm 2 m/S 750 mmHg 69%
    08:00 +10°C° 0 mm 3 m/S 750 mmHg 69%
    09:00 +11°C° 0 mm 3 m/S 750 mmHg 68%
    10:00 +11°C° 0.7 mm 4 m/S 750 mmHg 71%
    11:00 +11°C° 0.7 mm 6 m/S 749 mmHg 74%
    12:00 +11°C° 0.7 mm 7 m/S 749 mmHg 76%
    13:00 +9°C° 9 mm 7 m/S 748 mmHg 83%
    14:00 +8°C° 9 mm 7 m/S 747 mmHg 89%
    15:00 +5°C° 9 mm 7 m/S 747 mmHg 96%
    16:00 +5°C° 11.9 mm 7 m/S 746 mmHg 95%
    17:00 +5°C° 11.9 mm 7 m/S 746 mmHg 94%
    18:00 +4°C° 11.9 mm 8 m/S 745 mmHg 94%
    19:00 +5°C° 3.9 mm 7 m/S 745 mmHg 93%
    20:00 +5°C° 3.9 mm 7 m/S 745 mmHg 93%
    21:00 +7°C° 3.9 mm 6 m/S 745 mmHg 93%
    22:00 +7°C° 1.1 mm 6 m/S 745 mmHg 94%
    23:00 +7°C° 1.1 mm 5 m/S 745 mmHg 94%

    15 November, Freitag

    Zeit Temperatur Niederschläge Wind Luftdruck Luftfeuchtigkeit
    00:00 +8°C° 1.1 mm 4 m/S 745 mmHg 95%
    01:00 +8°C° 0.1 mm 4 m/S 746 mmHg 95%
    02:00 +8°C° 0.1 mm 4 m/S 746 mmHg 95%
    03:00 +8°C° 0.1 mm 4 m/S 746 mmHg 95%
    04:00 +7°C° 0 mm 4 m/S 747 mmHg 93%
    05:00 +7°C° 0 mm 4 m/S 747 mmHg 90%
    06:00 +7°C° 0 mm 4 m/S 748 mmHg 88%
    07:00 +8°C° 0 mm 3 m/S 748 mmHg 87%
    08:00 +9°C° 0 mm 3 m/S 749 mmHg 85%
    09:00 +9°C° 0 mm 2 m/S 749 mmHg 83%
    10:00 +9°C° 0 mm 2 m/S 749 mmHg 81%
    11:00 +10°C° 0 mm 2 m/S 749 mmHg 80%
    12:00 +11°C° 0 mm 1 m/S 749 mmHg 79%
    13:00 +11°C° 0.1 mm 1 m/S 749 mmHg 79%
    14:00 +11°C° 0.1 mm 1 m/S 749 mmHg 79%
    15:00 +11°C° 0.1 mm 1 m/S 749 mmHg 78%
    16:00 +9°C° 0.2 mm 2 m/S 749 mmHg 79%
    17:00 +9°C° 0.2 mm 2 m/S 750 mmHg 79%
    18:00 +8°C° 0.2 mm 3 m/S 750 mmHg 79%
    19:00 +8°C° 0.2 mm 3 m/S 751 mmHg 78%
    20:00 +7°C° 0.2 mm 3 m/S 751 mmHg 77%
    21:00 +7°C° 0.2 mm 2 m/S 752 mmHg 76%
    22:00 +7°C° 0 mm 2 m/S 752 mmHg 76%
    23:00 +6°C° 0 mm 2 m/S 753 mmHg 76%

    16 November, Samstag

    Zeit Temperatur Niederschläge Wind Luftdruck Luftfeuchtigkeit
    00:00 +6°C° 0 mm 2 m/S 753 mmHg 75%
    01:00 +6°C° 0.1 mm 2 m/S 754 mmHg 75%
    02:00 +6°C° 0.1 mm 2 m/S 754 mmHg 75%
    03:00 +5°C° 0.1 mm 2 m/S 754 mmHg 75%
    04:00 +5°C° 0.1 mm 2 m/S 754 mmHg 75%
    05:00 +5°C° 0.1 mm 2 m/S 755 mmHg 75%
    06:00 +6°C° 0.1 mm 2 m/S 755 mmHg 76%
    07:00 +7°C° 0 mm 2 m/S 755 mmHg 75%
    08:00 +8°C° 0 mm 2 m/S 756 mmHg 75%
    09:00 +9°C° 0 mm 2 m/S 756 mmHg 74%
    10:00 +10°C° 0 mm 2 m/S 756 mmHg 74%
    11:00 +10°C° 0 mm 2 m/S 755 mmHg 73%
    12:00 +12°C° 0 mm 2 m/S 755 mmHg 73%
    13:00 +12°C° 0 mm 2 m/S 755 mmHg 73%
    14:00 +10°C° 0 mm 2 m/S 755 mmHg 73%
    15:00 +10°C° 0 mm 2 m/S 755 mmHg 73%
    16:00 +9°C° 0 mm 3 m/S 755 mmHg 72%
    17:00 +9°C° 0 mm 3 m/S 754 mmHg 71%
    18:00 +7°C° 0 mm 4 m/S 754 mmHg 71%
    19:00 +7°C° 0 mm 4 m/S 754 mmHg 71%
    20:00 +7°C° 0 mm 4 m/S 753 mmHg 71%
    21:00 +7°C° 0 mm 4 m/S 753 mmHg 71%
    22:00 +7°C° 0 mm 4 m/S 752 mmHg 70%
    23:00 +7°C° 0 mm 4 m/S 751 mmHg 70%

    17 November, Sonntag

    Zeit Temperatur Niederschläge Wind Luftdruck Luftfeuchtigkeit
    00:00 +8°C° 0 mm 3 m/S 750 mmHg 69%
    01:00 +8°C° 0.4 mm 3 m/S 750 mmHg 72%
    02:00 +8°C° 0.4 mm 3 m/S 749 mmHg 75%
    03:00 +7°C° 0.4 mm 4 m/S 748 mmHg 78%
    04:00 +7°C° 2.3 mm 4 m/S 747 mmHg 80%
    05:00 +7°C° 2.3 mm 5 m/S 747 mmHg 83%
    06:00 +7°C° 2.3 mm 5 m/S 746 mmHg 85%
    07:00 +7°C° 1.6 mm 5 m/S 746 mmHg 85%
    08:00 +8°C° 1.6 mm 5 m/S 746 mmHg 85%
    09:00 +8°C° 1.6 mm 5 m/S 746 mmHg 85%
    10:00 +9°C° 0.3 mm 5 m/S 746 mmHg 84%
    11:00 +11°C° 0.3 mm 4 m/S 745 mmHg 84%
    12:00 +12°C° 0.3 mm 4 m/S 745 mmHg 83%
    13:00 +12°C° 0 mm 4 m/S 745 mmHg 84%
    14:00 +11°C° 0 mm 3 m/S 745 mmHg 85%
    15:00 +11°C° 0 mm 3 m/S 745 mmHg 85%
    16:00 +11°C° 0 mm 3 m/S 745 mmHg 85%
    17:00 +11°C° 0 mm 3 m/S 746 mmHg 84%
    18:00 +10°C° 0 mm 3 m/S 746 mmHg 84%
    19:00 +10°C° 0 mm 3 m/S 747 mmHg 83%
    20:00 +10°C° 0 mm 2 m/S 747 mmHg 83%
    21:00 +10°C° 0 mm 2 m/S 748 mmHg 83%
    22:00 +10°C° 0 mm 2 m/S 748 mmHg 84%
    23:00 +10°C° 0 mm 2 m/S 748 mmHg 85%
    Mehr zeigen